Regional Weather Roundup
Issued by NWS Portland, ME

Home | Current Version | Previous Version | Text Only | Print | Product List | Glossary On
Versions: 1 2 3 4 5 6 7 8 9 10 11 12 13 14 15 16 17 18 19 20 21 22 23 24 25 26 27 28 29 30 31 32 33 34 35 36 37 38 39 40 41 42 43 44 45 46 47 48 49 50
000
ASUS41 KGYX 291610
RWRGYX
WEATHER ROUNDUP FOR MAINE AND NEW HAMPSHIRE
NATIONAL WEATHER SERVICE GRAY ME
1100 AM EST THU JAN 29 2015

MEZ002-005-006-010-012-015-018-020-021-024-026-027-029-291700-
MAINE

CITY           SKY/WX    TMP DP  RH WIND       PRES   REMARKS
PORTLAND       MOSUNNY   22   6  50 CALM      30.32F
SANFORD        SUNNY     18   3  53 CALM      30.30S
BAR HARBOR     SUNNY     30  12  47 CALM      30.29F
WISCASSET      SUNNY     22  -1  36 NE5       30.32F
ROCKLAND       SUNNY     25   5  42 NE8       30.29F
FRYEBURG       SUNNY     18   3  52 CALM      30.27F
LEWISTONAUBURN SUNNY     18   0  45 CALM      30.28F
AUGUSTA        SUNNY     17  -2  43 NE3       30.29S
WATERVILLE     SUNNY     18   3  53 CALM      30.26S
BANGOR         MOSUNNY   16   1  51 CALM      30.29F
GREENVILLE       N/A     22  -4  32 NE3       30.16F
MILLINOCKET    SUNNY     23  -1  35 CALM      30.26F
HOULTON        SUNNY     16   0  49 CALM      30.25S
PRESQUE ISLE   SUNNY     12   1  62 CALM      30.24F
FRENCHVILLE    SUNNY     10   0  63 CALM      30.17F
CARIBOU        SUNNY     11   1  64 S3        30.22F
$$

NHZ002-005-008-009-011-012-014-291700-
NEW HAMPSHIRE

CITY           SKY/WX    TMP DP  RH WIND       PRES   REMARKS
PORTSMOUTH     MOSUNNY   19  -1  42 CALM      30.30F
ROCHESTER      SUNNY     21   1  41 CALM      30.29F
NASHUA         SUNNY     19   2  47 CALM      30.32F
MANCHESTER     MOSUNNY   20   2  45 CALM      30.29F
CONCORD        SUNNY     20  -1  40 CALM      30.30F
LACONIA        SUNNY     12   0  57 E5        30.26S
PLYMOUTH       FAIR      18   3  52 CALM      30.27F
BERLIN         SUNNY      6  -1  73 CALM      30.22F
WHITEFIELD     SUNNY      6  -1  73 CALM      30.22F
JAFFREY        SUNNY     24   3  40 CALM      30.23F
KEENE          SUNNY     12   0  57 CALM      30.28F
LEBANON        SUNNY      8   0  69 CALM      30.28F
MT WASHINGTON  PTSUNNY   16 -13  27 SW15        N/A  WCI   1
$$

VTZ005-007-008-291700-
VERMONT

CITY           SKY/WX    TMP DP  RH WIND       PRES   REMARKS
ST JOHNSBURY     N/A      4  -4  69 MISG      30.25F
MONTPELIER     SUNNY      3  -3  76 CALM      30.23F
BURLINGTON     MOSUNNY   17   1  49 CALM      30.21F
$$

MAZ007-012-024-CTZ003-RIZ002-NYZ038-NYZ072-291700-
SOUTHERN NEW ENGLAND AND NY

CITY           SKY/WX    TMP DP  RH WIND       PRES   REMARKS
BOSTON         MOSUNNY   28   6  39 CALM      30.32F
WORCESTER      SUNNY     25  -7  24 SE3       30.25S
NANTUCKET      MOSUNNY   32  24  72 NW9       30.28F
PROVIDENCE     PTSUNNY   24   0  35 CALM      30.31F
HARTFORD       PTSUNNY   19   0  43 NE5       30.30F
ALBANY         PTSUNNY   13   1  59 S3        30.28F
NEW YORK CITY  PTSUNNY   26   6  42 NE7       30.31F
$$

ANZ081-ANZ082-ANZ150-NHZ014-MEZ023>029-291700-
COASTAL MARINE OBSERVATIONS

STATION/POSITION TIME  TEMP    WIND        PRES    WAVE
                       AIR SEA DIR/SP/G            HT/PER
                 (UTC) (F)     (DEG/KT/KT) (MB)    (FT/S)
MOUNT DESERT ROC 1600   25                 1025.1F
MATINICUS ROCK   1600           40/ 10/ 12 1025.4F
PORTLAND WX BUOY 1550   24 40  360/  4/  6 1026.5S   3/10
WELLS            1500   20 32  360/  1/  2 1026.0S
ISLE OF SHOALS   1600   24     340/  8/  9 1025.4F
JEFFREYS LEDGE   1521      44                N/A     4/10
CASHES LEDGE BUO 1550   29 44   40/ 14/ 16 1025.2F   4/10
$$

.............KEY..............
   WCI - WIND CHILL
   TC  - TEMPERATURE IN CELSIUS
   VSB - VISIBILITY IN MILES
   HX  - HEAT INDEX
   FAIR- INDICATES FEW OR NO CLOUDS BELOW 12,000 FT, WITH NO
         SIGNIFICANT WEATHER AND/OR OBSTRUCTIONS TO VISIBILITY.




USA.gov is the U.S. government's official web portal to all federal, state and local government web resources and services.